Find Starlink 33836

NORAD ID: 63642 Int'l Des: 2025-083 Owner: SPXS Country: US Constellation: starlink operational
LEOCIRCULAR

Live Position

Loading 3D Globe...

About Starlink 33836

Description loading...

Upcoming Passes

Passes for default location (London). Set your location on the main map for personalized predictions.

Altitude History

Loading altitude history...

Two-Line Element Set

1 63642U 25083J 26125.18234606 .00027522 00000-0 10051-2 0 9992
2 63642 43.0027 46.4355 0001554 278.0140 82.0536 15.27608087 58701
Epoch: May 5, 2026 • Age: 15 hours

Current Status

Altitude 484.3 km
Velocity 7.63 km/s
Sub-Earth Point 29.92°N, 35.25°E
Launch Date Apr 25, 2025
Age 1 years
Type internet

Technical Details

Classification Payload
Mass 575.00 kg
Dry Mass 530.00 kg
Total Mass 575.00 kg
Length 0.30 m
Diameter 4.10 m
Span 29.00 m
Shape Box + pan
Manufacturer SPXS
Bus Type Starlink V2MO
Phase Status In Orbit
Owner/State SPXS/US

Most Searched